Regional Weather Roundup
Issued by NWS

Home | Current Version | Previous Version | Text Only | Print | Product List | Glossary On
Versions: 1 2 3 4 5 6 7 8 9 10 11 12 13 14 15 16 17 18 19 20 21 22 23 24 25 26 27 28 29 30 31 32 33 34 35 36 37 38 39 40 41 42 43 44 45 46 47 48 49 50
000
ASPQ40 PGUM 252112
RWRPQ
WEATHER ROUNDUP FOR THE MARIANAS AND MICRONESIA
NATIONAL WEATHER SERVICE TIYAN GU
700 AM CHST MON JUN 26 2017

GUZ001>004-252200-
MARIANA ISLANDS-

CITY           SKY/WX    TMP DP  RH WIND       PRES   REMARKS
GUAM AIRPORT   PTSUNNY   82  77  83 SE12G23   29.86R HX  91
ANDERSEN AFB   PTSUNNY   81  77  89 SE13      29.86R
ROTA AIRPORT   PTSUNNY   79  77  94 SE15      29.86R
TINIAN AP      PTSUNNY   82  77  83 E12       29.85R HX  91
SAIPAN AP      MOSUNNY   84  77  79 SE13      29.86R HX  94

$$

PMZ161-252200-
REPUBLIC OF PALAU-

CITY           SKY/WX    TMP DP  RH WIND       PRES   REMARKS
KOROR AP       MOCLDY    77  75  94 CALM      29.82R
KOROR WSO      MOCLDY    81  79  94 CALM      29.83R

$$

PMZ171>174-252200-
FEDERATED STATES OF MICRONESIA-

CITY           SKY/WX    TMP DP  RH WIND       PRES   REMARKS
YAP AIRPORT    PTCLDY    79  77  94 CALM      29.81R
CHUUK AP       CLOUDY    82  77  83 VRB3      29.82R HX  91
POHNPEI AP     NOT AVBL
POHNPEI WSO    CLOUDY    79  77  94 SE3       29.87R
KOSRAE AP      NOT AVBL

$$

PMZ181-252200-
REPUBLIC OF THE MARSHALL ISLANDS-

CITY           SKY/WX    TMP DP  RH WIND       PRES   REMARKS
KWAJALEIN AP   MOSUNNY   82  75  78 E13       29.89R
MAJURO AP      NOT AVBL
MAJURO WSO     PTSUNNY   82  75  78 E7        29.86R

$$




USA.gov is the U.S. government's official web portal to all federal, state and local government web resources and services.